User: anonymous   Login
Location: Unspecified
(0.0000°N, 0.0000°E)
Time: 22:23:26
(UTC+00:00)
Language:

MetOp-A - Orbit

View from above orbital plane
View from above orbital plane
View from above satellite
View from above satellite

Ground track
Ground track

The orbit data is extracted from the following two-line orbital elements,

1 29499U 06044A   17326.96783701 +.00000029 +00000-0 +32956-4 0  9997
2 29499 098.6584 023.7653 0002061 090.8763 077.9998 14.21516298575514
Epoch (UTC): 22 November 2017 23:13:41
Eccentricity: 0.0002061
inclination: 98.6584°
perigee height: 819 km
apogee height: 822 km
right ascension of ascending node: 23.7653°
argument of perigee: 90.8763°
revolutions per day: 14.21516298
mean anomaly at epoch: 77.9998°
orbit number at epoch: 57551

The dashed part of the orbit path shows where the satellite is in the earth's shadow,  

DLR